Location: Pedholt
(56.0260°N, 10.2097°E)
Time: 00:52:30
(UTC+00:00)

A-11 Canister half - Pass Details

Date: 28 July 2021
Orbit: 1514 x 1685 km, 47.2° (Epoch: 16 September)

Event Time Altitude Azimuth Distance (km) Brightness Sun altitude
Rises 20:25:18 0° 261° (W) 4,876 12.1 -6.1°
Reaches altitude 10° 20:28:31 10° 257° (WSW) 3,907 11.5 -6.4°
Maximum altitude 20:38:06 52° 185° (S) 2,014 9.4 -7.3°
Drops below altitude 10° 20:47:47 10° 113° (ESE) 3,948 10.6 -8.1°
Enters shadow 20:50:43 - 109° (ESE) 4,832 11.1 -8.4°
Sets 20:51:02 0° 109° (ESE) 4,930 - -8.4°
